DLH8FN EDDF-EHAM

Flight info

Callsign DLH8FN
Flight time 0h 51m
Altitude 24000
Route MARUN9S MARUN Y152 ARPEG Z850 ABILU DCT NORKU
Aircraft A320/M-SDE2E3FGIJ1LORWXYZ/HB1

Departure

Time 2026-05-06 08:13
Airport Frankfurt Main Airport (EDDF)

Arrival

Time 2026-05-06 09:05
Airport Amsterdam Airport Schiphol (EHAM)
Time Latitude Longitude Altitude Speed Heading
2026-05-06 07:42 50.03586 8.53659 341 ft 0 kts 160°
2026-05-06 08:05 50.03583 8.53660 341 ft 1 kts 160°
2026-05-06 08:05 50.03570 8.53668 338 ft 4 kts 160°
2026-05-06 08:05 50.03526 8.53697 339 ft 8 kts 144°
2026-05-06 08:06 50.03530 8.53780 338 ft 8 kts 69°
2026-05-06 08:06 50.03550 8.53863 337 ft 10 kts 70°
2026-05-06 08:06 50.03587 8.54020 345 ft 20 kts 70°
2026-05-06 08:06 50.03633 8.54213 348 ft 19 kts 70°
2026-05-06 08:07 50.03678 8.54401 348 ft 18 kts 69°
2026-05-06 08:07 50.03725 8.54597 353 ft 23 kts 69°
2026-05-06 08:07 50.03782 8.54835 354 ft 24 kts 70°
2026-05-06 08:07 50.03841 8.55082 351 ft 24 kts 70°
2026-05-06 08:08 50.03903 8.55342 353 ft 27 kts 70°
2026-05-06 08:08 50.03974 8.55639 354 ft 31 kts 69°
2026-05-06 08:08 50.04044 8.55933 358 ft 27 kts 69°
2026-05-06 08:08 50.04114 8.56225 357 ft 30 kts 69°
2026-05-06 08:09 50.04186 8.56528 360 ft 28 kts 69°
2026-05-06 08:09 50.04257 8.56826 363 ft 30 kts 69°
2026-05-06 08:09 50.04335 8.57149 361 ft 33 kts 70°
2026-05-06 08:09 50.04403 8.57433 365 ft 26 kts 70°
2026-05-06 08:10 50.04468 8.57707 365 ft 28 kts 69°
2026-05-06 08:10 50.04541 8.58010 364 ft 32 kts 69°
2026-05-06 08:10 50.04616 8.58325 371 ft 22 kts 69°
2026-05-06 08:10 50.04656 8.58496 370 ft 10 kts 70°
2026-05-06 08:11 50.04638 8.58561 369 ft 7 kts 147°
2026-05-06 08:11 50.04610 8.58578 369 ft 0 kts 160°
2026-05-06 08:11 50.04609 8.58579 369 ft 1 kts 160°
2026-05-06 08:11 50.04573 8.58600 370 ft 7 kts 160°
2026-05-06 08:12 50.04526 8.58626 371 ft 8 kts 163°
2026-05-06 08:12 50.04483 8.58574 371 ft 11 kts 248°
2026-05-06 08:12 50.04444 8.58407 370 ft 31 kts 249°
2026-05-06 08:12 50.04254 8.57617 366 ft 119 kts 250°
2026-05-06 08:13 50.03908 8.56129 641 ft 158 kts 248°
2026-05-06 08:13 50.03533 8.54513 1586 ft 159 kts 248°
2026-05-06 08:13 50.03126 8.52834 2328 ft 175 kts 250°
2026-05-06 08:13 50.02661 8.50985 2927 ft 189 kts 244°
2026-05-06 08:14 50.01713 8.49584 3615 ft 200 kts 206°
2026-05-06 08:14 50.00378 8.48876 4672 ft 203 kts 200°
2026-05-06 08:14 49.99021 8.48272 5840 ft 203 kts 199°
2026-05-06 08:14 49.97649 8.47675 6955 ft 205 kts 199°
2026-05-06 08:15 49.96261 8.47060 8018 ft 209 kts 199°
2026-05-06 08:15 49.94808 8.46410 8820 ft 229 kts 198°
2026-05-06 08:15 49.93206 8.45693 9702 ft 245 kts 198°
2026-05-06 08:15 49.91614 8.44771 10693 ft 251 kts 213°
2026-05-06 08:16 49.90439 8.42779 11722 ft 257 kts 244°
2026-05-06 08:16 49.90135 8.40024 12798 ft 268 kts 275°
2026-05-06 08:16 49.90892 8.37337 13826 ft 283 kts 307°
2026-05-06 08:16 49.92535 8.35532 14653 ft 303 kts 331°
2026-05-06 08:17 49.94544 8.34132 15100 ft 329 kts 334°
2026-05-06 08:17 49.96743 8.32738 15484 ft 353 kts 335°
2026-05-06 08:17 49.99161 8.31594 16008 ft 373 kts 348°
2026-05-06 08:17 50.01719 8.30964 16810 ft 380 kts 349°
2026-05-06 08:18 50.04353 8.30311 17703 ft 385 kts 349°
2026-05-06 08:18 50.07023 8.29642 18507 ft 391 kts 348°
2026-05-06 08:18 50.09727 8.28963 19281 ft 395 kts 348°
2026-05-06 08:18 50.12464 8.28278 20054 ft 399 kts 348°
2026-05-06 08:19 50.15191 8.27601 20778 ft 405 kts 348°
2026-05-06 08:19 50.17988 8.26910 21510 ft 410 kts 348°
2026-05-06 08:19 50.20825 8.26203 22219 ft 414 kts 348°
2026-05-06 08:19 50.23690 8.25485 22922 ft 419 kts 348°
2026-05-06 08:20 50.26587 8.24759 23532 ft 423 kts 347°
2026-05-06 08:20 50.29502 8.24029 23724 ft 424 kts 347°
2026-05-06 08:20 50.32427 8.23297 23775 ft 427 kts 347°
2026-05-06 08:20 50.35369 8.22562 23774 ft 428 kts 348°
2026-05-06 08:21 50.38316 8.21826 23772 ft 427 kts 348°
2026-05-06 08:21 50.41247 8.21089 23765 ft 427 kts 348°
2026-05-06 08:21 50.44153 8.20354 23765 ft 427 kts 348°
2026-05-06 08:21 50.47089 8.19609 23765 ft 427 kts 348°
2026-05-06 08:22 50.50022 8.18866 23764 ft 427 kts 348°
2026-05-06 08:22 50.51971 8.18374 23765 ft 427 kts 348°
2026-05-06 08:22 50.54904 8.17635 23765 ft 427 kts 348°
2026-05-06 08:22 50.57840 8.16893 23769 ft 427 kts 348°
2026-05-06 08:23 50.60779 8.16146 23774 ft 427 kts 348°
2026-05-06 08:23 50.63720 8.15401 23761 ft 427 kts 348°
2026-05-06 08:23 50.66657 8.14654 23760 ft 427 kts 348°
2026-05-06 08:23 50.69601 8.13904 23760 ft 427 kts 348°
2026-05-06 08:24 50.72542 8.13154 23760 ft 442 kts 348°
2026-05-06 08:24 50.75651 8.12353 23754 ft 461 kts 348°
2026-05-06 08:24 50.78878 8.11519 23755 ft 476 kts 349°
2026-05-06 08:24 50.82191 8.10666 23756 ft 486 kts 349°
2026-05-06 08:25 50.85548 8.09811 23756 ft 489 kts 349°
2026-05-06 08:25 50.88875 8.08966 23761 ft 490 kts 349°
2026-05-06 08:25 50.92246 8.08107 23764 ft 490 kts 349°
2026-05-06 08:25 50.95620 8.07237 23766 ft 490 kts 349°
2026-05-06 08:26 50.98996 8.06364 23769 ft 490 kts 349°
2026-05-06 08:26 51.02370 8.05487 23771 ft 491 kts 349°
2026-05-06 08:26 51.05744 8.04610 23775 ft 489 kts 349°
2026-05-06 08:26 51.09092 8.03741 23773 ft 485 kts 350°
2026-05-06 08:27 51.12373 8.02894 23777 ft 484 kts 350°
2026-05-06 08:27 51.15704 8.02032 23773 ft 483 kts 350°
2026-05-06 08:27 51.19027 8.01166 23770 ft 483 kts 350°
2026-05-06 08:27 51.22348 8.00293 23770 ft 483 kts 350°
2026-05-06 08:28 51.25668 7.99423 23766 ft 483 kts 350°
2026-05-06 08:28 51.28983 7.98559 23764 ft 483 kts 350°
2026-05-06 08:28 51.32301 7.97698 23765 ft 482 kts 351°
2026-05-06 08:28 51.35614 7.96833 23774 ft 481 kts 351°
2026-05-06 08:29 51.38855 7.95790 23775 ft 480 kts 344°
2026-05-06 08:29 51.41970 7.93826 23774 ft 479 kts 332°
2026-05-06 08:29 51.44785 7.90949 23772 ft 478 kts 323°
2026-05-06 08:29 51.47424 7.87795 23771 ft 478 kts 323°
2026-05-06 08:30 51.50094 7.84602 23765 ft 478 kts 323°
2026-05-06 08:30 51.52768 7.81411 23763 ft 478 kts 323°
2026-05-06 08:30 51.55446 7.78220 23760 ft 478 kts 323°
2026-05-06 08:30 51.58121 7.75025 23762 ft 478 kts 323°
2026-05-06 08:31 51.60794 7.71828 23770 ft 478 kts 323°
2026-05-06 08:31 51.63462 7.68625 23770 ft 478 kts 323°
2026-05-06 08:31 51.66125 7.65418 23773 ft 478 kts 323°
2026-05-06 08:31 51.68753 7.62251 23772 ft 478 kts 323°
2026-05-06 08:32 51.71422 7.59033 23773 ft 478 kts 323°
2026-05-06 08:32 51.74086 7.55815 23778 ft 478 kts 323°
2026-05-06 08:32 51.76750 7.52593 23784 ft 478 kts 323°
2026-05-06 08:32 51.79407 7.49377 23799 ft 478 kts 323°
2026-05-06 08:33 51.82069 7.46150 23804 ft 478 kts 323°
2026-05-06 08:33 51.84727 7.42919 23817 ft 477 kts 322°
2026-05-06 08:33 51.87345 7.39732 23834 ft 476 kts 323°
2026-05-06 08:33 51.89994 7.36498 23837 ft 475 kts 322°
2026-05-06 08:34 51.92631 7.33275 23842 ft 475 kts 323°
2026-05-06 08:34 51.97927 7.26794 23810 ft 477 kts 323°
2026-05-06 08:34 52.00590 7.23536 23814 ft 477 kts 323°
2026-05-06 08:35 52.03209 7.20330 23816 ft 478 kts 322°
2026-05-06 08:35 52.05871 7.17060 23814 ft 478 kts 322°
2026-05-06 08:35 52.08527 7.13785 23815 ft 479 kts 322°
2026-05-06 08:35 52.11188 7.10498 23813 ft 479 kts 322°
2026-05-06 08:36 52.13842 7.07215 23819 ft 479 kts 322°
2026-05-06 08:36 52.16465 7.03968 23820 ft 479 kts 322°
2026-05-06 08:36 52.19124 7.00673 23822 ft 479 kts 322°
2026-05-06 08:36 52.21677 6.97186 23821 ft 478 kts 315°
2026-05-06 08:37 52.23861 6.93076 23822 ft 478 kts 309°
2026-05-06 08:37 52.25960 6.88868 23831 ft 478 kts 308°
2026-05-06 08:37 52.28058 6.84660 23832 ft 478 kts 308°
2026-05-06 08:37 52.30161 6.80445 23831 ft 478 kts 308°
2026-05-06 08:38 52.32235 6.76279 23830 ft 478 kts 308°
2026-05-06 08:38 52.34334 6.72055 23835 ft 478 kts 308°
2026-05-06 08:38 52.36381 6.67932 23848 ft 452 kts 308°
2026-05-06 08:38 52.38303 6.64064 23851 ft 426 kts 308°
2026-05-06 08:39 52.40149 6.60346 23658 ft 416 kts 307°
2026-05-06 08:39 52.41963 6.56678 22872 ft 412 kts 307°
2026-05-06 08:39 52.43751 6.53051 22225 ft 405 kts 307°
2026-05-06 08:39 52.45341 6.49310 21632 ft 396 kts 297°
2026-05-06 08:40 52.46449 6.45294 21063 ft 387 kts 288°
2026-05-06 08:40 52.47099 6.41048 20505 ft 380 kts 277°
2026-05-06 08:40 52.47356 6.36768 19927 ft 375 kts 273°
2026-05-06 08:40 52.47568 6.32508 19360 ft 372 kts 274°
2026-05-06 08:41 52.47779 6.28281 18769 ft 369 kts 274°
2026-05-06 08:41 52.47988 6.24132 18188 ft 368 kts 273°
2026-05-06 08:41 52.48197 6.19961 17524 ft 367 kts 274°
2026-05-06 08:41 52.48401 6.15801 16909 ft 364 kts 274°
2026-05-06 08:42 52.48600 6.11672 16295 ft 362 kts 274°
2026-05-06 08:42 52.48795 6.07559 15677 ft 361 kts 275°
2026-05-06 08:42 52.48990 6.03453 15057 ft 361 kts 276°
2026-05-06 08:42 52.49187 5.99341 14438 ft 359 kts 276°
2026-05-06 08:43 52.49380 5.95310 13838 ft 358 kts 275°
2026-05-06 08:43 52.49573 5.91241 13174 ft 356 kts 275°
2026-05-06 08:43 52.49761 5.87210 12538 ft 352 kts 275°
2026-05-06 08:43 52.49943 5.83221 11898 ft 349 kts 275°
2026-05-06 08:44 52.50123 5.79260 11260 ft 345 kts 275°
2026-05-06 08:44 52.50299 5.75390 10626 ft 343 kts 275°
2026-05-06 08:44 52.50473 5.71526 10276 ft 332 kts 275°
2026-05-06 08:44 52.50635 5.67846 10154 ft 315 kts 275°
2026-05-06 08:45 52.50790 5.64337 10027 ft 300 kts 275°
2026-05-06 08:45 52.50939 5.60964 9758 ft 292 kts 275°
2026-05-06 08:45 52.50921 5.57704 9592 ft 289 kts 263°
2026-05-06 08:45 52.50425 5.54507 9456 ft 290 kts 249°
2026-05-06 08:46 52.49588 5.51497 9330 ft 290 kts 246°
2026-05-06 08:46 52.48733 5.48483 9134 ft 290 kts 246°
2026-05-06 08:46 52.47885 5.45480 8890 ft 288 kts 247°
2026-05-06 08:46 52.47043 5.42503 8642 ft 287 kts 246°
2026-05-06 08:47 52.46203 5.39538 8381 ft 286 kts 246°
2026-05-06 08:47 52.45363 5.36577 8158 ft 286 kts 246°
2026-05-06 08:47 52.44535 5.33661 7898 ft 285 kts 248°
2026-05-06 08:47 52.43694 5.30697 7651 ft 285 kts 248°
2026-05-06 08:48 52.42858 5.27753 7405 ft 284 kts 247°
2026-05-06 08:48 52.42022 5.24816 7155 ft 284 kts 247°
2026-05-06 08:48 52.41185 5.21894 6912 ft 280 kts 248°
2026-05-06 08:48 52.40384 5.19107 6775 ft 266 kts 246°
2026-05-06 08:49 52.39618 5.16441 6627 ft 253 kts 248°
2026-05-06 08:49 52.38878 5.13862 6371 ft 248 kts 246°
2026-05-06 08:49 52.38143 5.11303 6062 ft 246 kts 247°
2026-05-06 08:49 52.37409 5.08747 5820 ft 248 kts 246°
2026-05-06 08:50 52.36676 5.06198 5576 ft 248 kts 247°
2026-05-06 08:50 52.35950 5.03671 5387 ft 249 kts 247°
2026-05-06 08:50 52.35211 5.01096 5171 ft 249 kts 247°
2026-05-06 08:50 52.34473 4.98534 4958 ft 250 kts 247°
2026-05-06 08:51 52.33729 4.95957 4738 ft 250 kts 248°
2026-05-06 08:51 52.32984 4.93381 4497 ft 250 kts 246°
2026-05-06 08:51 52.32241 4.90810 4293 ft 250 kts 246°
2026-05-06 08:51 52.31514 4.88293 4085 ft 244 kts 246°
2026-05-06 08:52 52.30795 4.85816 3881 ft 239 kts 246°
2026-05-06 08:52 52.30085 4.83379 3665 ft 236 kts 246°
2026-05-06 08:52 52.29383 4.80964 3467 ft 234 kts 246°
2026-05-06 08:52 52.28684 4.78565 3287 ft 232 kts 246°
2026-05-06 08:53 52.27997 4.76214 3158 ft 227 kts 246°
2026-05-06 08:53 52.27321 4.73897 3026 ft 224 kts 246°
2026-05-06 08:53 52.26657 4.71619 2949 ft 221 kts 246°
2026-05-06 08:53 52.25997 4.69358 2853 ft 219 kts 245°
2026-05-06 08:54 52.25348 4.67132 2753 ft 220 kts 245°
2026-05-06 08:54 52.24688 4.64878 2657 ft 220 kts 245°
2026-05-06 08:54 52.24025 4.62615 2564 ft 222 kts 246°
2026-05-06 08:54 52.23359 4.60331 2470 ft 220 kts 246°
2026-05-06 08:55 52.22700 4.58088 2379 ft 218 kts 245°
2026-05-06 08:55 52.22043 4.55853 2265 ft 219 kts 245°
2026-05-06 08:55 52.21398 4.53619 2209 ft 217 kts 246°
2026-05-06 08:55 52.20759 4.51375 2118 ft 218 kts 246°
2026-05-06 08:56 52.20124 4.49132 2016 ft 218 kts 247°
2026-05-06 08:56 52.19491 4.46893 2002 ft 215 kts 247°
2026-05-06 08:56 52.19128 4.44582 1988 ft 207 kts 277°
2026-05-06 08:56 52.19569 4.42650 2016 ft 161 kts 313°
2026-05-06 08:57 52.20329 4.41621 2013 ft 131 kts 342°
2026-05-06 08:57 52.21147 4.41261 2006 ft 116 kts
2026-05-06 08:57 52.21907 4.41404 2011 ft 110 kts 20°
2026-05-06 08:57 52.22587 4.41961 2011 ft 110 kts 38°
2026-05-06 08:58 52.23113 4.42886 2012 ft 112 kts 57°
2026-05-06 08:58 52.23404 4.44059 2011 ft 113 kts 74°
2026-05-06 08:58 52.23429 4.45350 2012 ft 113 kts 87°
2026-05-06 08:58 52.23387 4.46625 2012 ft 113 kts 87°
2026-05-06 08:59 52.23348 4.47904 2008 ft 112 kts 86°
2026-05-06 08:59 52.23311 4.49162 2010 ft 111 kts 86°
2026-05-06 08:59 52.23275 4.50410 2011 ft 111 kts 86°
2026-05-06 08:59 52.23238 4.51664 2013 ft 111 kts 86°
2026-05-06 09:00 52.23200 4.52924 2012 ft 112 kts 87°
2026-05-06 09:00 52.23162 4.54188 2003 ft 112 kts 87°
2026-05-06 09:00 52.23123 4.55450 2005 ft 111 kts 88°
2026-05-06 09:00 52.23083 4.56708 2004 ft 111 kts 87°
2026-05-06 09:01 52.23089 4.57963 2005 ft 110 kts 76°
2026-05-06 09:01 52.23385 4.59080 1981 ft 110 kts 52°
2026-05-06 09:01 52.23770 4.60182 1895 ft 112 kts 58°
2026-05-06 09:01 52.24165 4.61293 1763 ft 114 kts 58°
2026-05-06 09:02 52.24574 4.62403 1626 ft 113 kts 56°
2026-05-06 09:02 52.24979 4.63485 1479 ft 113 kts 56°
2026-05-06 09:02 52.25393 4.64573 1323 ft 111 kts 56°
2026-05-06 09:02 52.25802 4.65643 1167 ft 111 kts 56°
2026-05-06 09:03 52.26211 4.66707 1023 ft 111 kts 55°
2026-05-06 09:03 52.26621 4.67777 840 ft 111 kts 55°
2026-05-06 09:03 52.27028 4.68836 716 ft 109 kts 54°
2026-05-06 09:03 52.27440 4.69903 571 ft 110 kts 56°
2026-05-06 09:04 52.27849 4.70966 419 ft 109 kts 56°
2026-05-06 09:04 52.28261 4.72038 314 ft 111 kts 57°
2026-05-06 09:04 52.28678 4.73121 126 ft 114 kts 58°
2026-05-06 09:04 52.29087 4.74183 11 ft 107 kts 56°
2026-05-06 09:05 52.29395 4.74982 -2 ft 45 kts 57°
2026-05-06 09:05 52.29527 4.75321 -3 ft 31 kts 58°
2026-05-06 09:05 52.29628 4.75589 -1 ft 24 kts 58°
2026-05-06 09:05 52.29754 4.75780 -3 ft 26 kts 28°
2026-05-06 09:06 52.29909 4.75910 -2 ft 20 kts 27°
2026-05-06 09:06 52.30017 4.75948 -2 ft 17 kts 343°
2026-05-06 09:06 52.30112 4.76040 -2 ft 19 kts 59°
2026-05-06 09:06 52.30188 4.76241 -2 ft 23 kts 58°
2026-05-06 09:07 52.30266 4.76443 -2 ft 19 kts 58°
2026-05-06 09:07 52.30356 4.76515 -2 ft 18 kts 341°
2026-05-06 09:07 52.30464 4.76406 -2 ft 18 kts 327°
2026-05-06 09:07 52.30530 4.76337 -2 ft 6 kts 321°
2026-05-06 09:08 52.30522 4.76283 -2 ft 5 kts 239°
2026-05-06 09:08 52.30510 4.76251 -2 ft 1 kts 238°
2026-05-06 09:08 52.30509 4.76250 -2 ft 0 kts 238°
2026-05-06 09:12 52.30509 4.76249 -2 ft 0 kts 238°